Location: Newark
(9.4667°S, 159.8167°E)
Time: 07:49:06
(UTC+00:00)

Courier 1B Rocket - Pass Details

Date: 21 November 2019
Orbit: 920 x 1202 km, 28.2° (Epoch: 05 December)

Event Time Altitude Azimuth Distance (km) Brightness Sun altitude
Rises 20:51:31 0° 234° (SW) 3,623 7.7 27.8°
Reaches altitude 10° 20:54:18 10° 227° (SW) 2,650 7.1 28.4°
Maximum altitude 21:00:21 45° 155° (SSE) 1,225 6.5 29.8°
Drops below altitude 10° 21:06:17 10° 83° (E) 2,609 8.4 31.2°
Sets 21:09:00 0° 77° (ENE) 3,563 8.8 31.9°
